Orbital Elements at Epoch 2459200.5 (2020-Dec-17.0) TDB
Reference: JPL 23 (heliocentric ecliptic J2000)
Element | Value | Uncertainty (1-sigma) | Units |
e | .05326078524210866 | 3.6809e-08 | |
a | 2.535001985538339 | 1.4533e-08 | au |
q | 2.399985789198263 | 9.9869e-08 | au |
i | 3.989385179359159 | 5.4554e-06 | deg |
node | 225.2957653614384 | 5.4104e-05 | deg |
peri | 81.49048439868923 | 7.577e-05 | deg |
M | 341.5194412908351 | 5.2556e-05 | deg |
tp | 2459276.179539127027 (2021-Mar-02.67953913) | 0.00021526 | TDB |
period | 1474.232165514495 4.04 | 1.2678e-05 3.471e-08 | d yr |
n | .2441949161205303 | 2.1e-09 | deg/d |
Q | 2.670018181878416 | 1.5307e-08 | au |
|
| | Orbit Determination Parameters
Additional Information
|